EN

Hourly Weather Trawniki

Today, 16 April, Friday

Time Temperature Precipitation Wind Pressure Humidity
00:00 0°C° 0 mm 3 mps 739 mmHg 99%
01:00 0°C° 0 mm 3 mps 739 mmHg 98%
02:00 +1°C° 0.1 mm 3 mps 739 mmHg 98%
03:00 +1°C° 0.1 mm 3 mps 738 mmHg 98%
04:00 0°C° 0.1 mm 4 mps 738 mmHg 97%
05:00 0°C° 0.4 mm 4 mps 738 mmHg 97%
06:00 0°C° 0.4 mm 4 mps 738 mmHg 97%
07:00 0°C° 0 mm 4 mps 738 mmHg 97%
08:00 0°C° 0.6 mm 4 mps 738 mmHg 97%
09:00 0°C° 0.6 mm 4 mps 738 mmHg 97%
10:00 0°C° 0.6 mm 4 mps 738 mmHg 97%
11:00 0°C° 0.7 mm 4 mps 738 mmHg 97%
12:00 0°C° 0.7 mm 4 mps 738 mmHg 97%
13:00 0°C° 0 mm 4 mps 738 mmHg 97%
14:00 +1°C° 0.2 mm 4 mps 738 mmHg 97%
15:00 +1°C° 0.2 mm 4 mps 738 mmHg 97%
16:00 +1°C° 0.2 mm 4 mps 738 mmHg 97%
17:00 0°C° 0.8 mm 4 mps 739 mmHg 97%
18:00 +1°C° 0.8 mm 3 mps 739 mmHg 98%
19:00 +1°C° 0.8 mm 3 mps 739 mmHg 98%
20:00 +1°C° 1 mm 3 mps 739 mmHg 98%
21:00 +2°C° 1 mm 2 mps 739 mmHg 98%
22:00 +2°C° 1 mm 2 mps 739 mmHg 98%
23:00 +2°C° 0.1 mm 2 mps 739 mmHg 98%

Tomorrow, 17 April, Saturday

Time Temperature Precipitation Wind Pressure Humidity
00:00 +2°C° 0.1 mm 2 mps 739 mmHg 98%
01:00 +2°C° 0.1 mm 2 mps 739 mmHg 98%
02:00 +2°C° 0 mm 2 mps 739 mmHg 98%
03:00 +2°C° 0 mm 2 mps 739 mmHg 98%
04:00 +2°C° 0 mm 2 mps 739 mmHg 98%
05:00 +3°C° 0.2 mm 2 mps 739 mmHg 98%
06:00 +3°C° 0.2 mm 2 mps 739 mmHg 98%
07:00 +3°C° 0.2 mm 2 mps 739 mmHg 98%
08:00 +3°C° 0.3 mm 2 mps 740 mmHg 98%
09:00 +4°C° 0.3 mm 2 mps 740 mmHg 98%
10:00 +4°C° 0.3 mm 2 mps 740 mmHg 97%
11:00 +4°C° 0 mm 2 mps 740 mmHg 96%
12:00 +4°C° 0 mm 2 mps 740 mmHg 96%
13:00 +6°C° 0 mm 1 mps 740 mmHg 95%
14:00 +6°C° 0 mm 1 mps 740 mmHg 94%
15:00 +6°C° 0 mm 1 mps 740 mmHg 94%
16:00 +6°C° 0 mm 1 mps 740 mmHg 93%
17:00 +6°C° 0 mm 1 mps 740 mmHg 94%
18:00 +6°C° 0 mm 1 mps 740 mmHg 95%
19:00 +5°C° 0 mm 1 mps 741 mmHg 95%
20:00 +5°C° 0 mm 1 mps 741 mmHg 96%
21:00 +5°C° 0 mm 1 mps 741 mmHg 96%
22:00 +5°C° 0 mm 1 mps 741 mmHg 97%
23:00 +5°C° 0 mm 1 mps 741 mmHg 97%

Day after tomorrow, 18 April, Sunday

Time Temperature Precipitation Wind Pressure Humidity
00:00 +4°C° 0 mm 0 mps 741 mmHg 97%
01:00 +4°C° 0 mm 0 mps 741 mmHg 97%
02:00 +4°C° 0 mm 0 mps 741 mmHg 97%
03:00 +4°C° 0 mm 0 mps 740 mmHg 96%
04:00 +4°C° 0 mm 0 mps 740 mmHg 96%
05:00 +4°C° 0 mm 0 mps 740 mmHg 94%
06:00 +6°C° 0 mm 1 mps 740 mmHg 91%
07:00 +6°C° 0 mm 1 mps 741 mmHg 88%
08:00 +8°C° 0 mm 1 mps 740 mmHg 82%
09:00 +8°C° 0 mm 2 mps 740 mmHg 75%
10:00 +9°C° 0 mm 2 mps 740 mmHg 68%
11:00 +10°C° 0 mm 2 mps 740 mmHg 65%
12:00 +12°C° 0 mm 2 mps 740 mmHg 61%
13:00 +13°C° 0 mm 2 mps 740 mmHg 57%
14:00 +13°C° 0 mm 2 mps 740 mmHg 58%
15:00 +13°C° 0 mm 2 mps 740 mmHg 58%
16:00 +13°C° 0 mm 2 mps 739 mmHg 59%
17:00 +12°C° 0 mm 2 mps 739 mmHg 65%
18:00 +10°C° 0 mm 2 mps 740 mmHg 72%
19:00 +9°C° 0 mm 1 mps 740 mmHg 79%
20:00 +9°C° 0 mm 1 mps 740 mmHg 81%
21:00 +9°C° 0 mm 1 mps 740 mmHg 82%
22:00 +9°C° 0 mm 1 mps 740 mmHg 84%
23:00 +9°C° 0 mm 1 mps 740 mmHg 85%

19 April, Monday

Time Temperature Precipitation Wind Pressure Humidity
00:00 +9°C° 0 mm 1 mps 739 mmHg 87%
01:00 +9°C° 0 mm 1 mps 739 mmHg 88%
02:00 +8°C° 0.1 mm 2 mps 739 mmHg 90%
03:00 +7°C° 0.1 mm 2 mps 739 mmHg 93%
04:00 +7°C° 0.1 mm 2 mps 739 mmHg 95%
05:00 +8°C° 0.1 mm 3 mps 739 mmHg 92%
06:00 +8°C° 0.1 mm 3 mps 739 mmHg 90%
07:00 +8°C° 0.1 mm 3 mps 739 mmHg 87%
08:00 +8°C° 0.1 mm 4 mps 739 mmHg 79%
09:00 +10°C° 0.1 mm 4 mps 739 mmHg 72%
10:00 +12°C° 0.1 mm 4 mps 738 mmHg 64%
11:00 +12°C° 0.2 mm 4 mps 738 mmHg 64%
12:00 +12°C° 0.2 mm 4 mps 738 mmHg 63%
13:00 +12°C° 0.2 mm 4 mps 738 mmHg 63%
14:00 +12°C° 0.2 mm 4 mps 738 mmHg 63%
15:00 +12°C° 0.2 mm 4 mps 738 mmHg 64%
16:00 +12°C° 0.2 mm 4 mps 737 mmHg 65%
17:00 +10°C° 0.1 mm 4 mps 737 mmHg 69%
18:00 +9°C° 0.1 mm 3 mps 737 mmHg 74%
19:00 +8°C° 0.1 mm 2 mps 737 mmHg 79%
20:00 +7°C° 0 mm 2 mps 737 mmHg 83%
21:00 +7°C° 0 mm 2 mps 737 mmHg 86%
22:00 +5°C° 0 mm 3 mps 737 mmHg 90%
23:00 +6°C° 0 mm 2 mps 737 mmHg 91%

20 April, Tuesday

Time Temperature Precipitation Wind Pressure Humidity
00:00 +6°C° 0 mm 2 mps 737 mmHg 92%
01:00 +6°C° 0 mm 2 mps 737 mmHg 93%
02:00 +6°C° 0 mm 2 mps 737 mmHg 92%
03:00 +6°C° 0 mm 2 mps 736 mmHg 91%
04:00 +6°C° 0 mm 2 mps 736 mmHg 91%
05:00 +6°C° 0 mm 2 mps 736 mmHg 88%
06:00 +6°C° 0 mm 2 mps 736 mmHg 85%
07:00 +7°C° 0 mm 2 mps 736 mmHg 82%
08:00 +8°C° 0 mm 2 mps 736 mmHg 74%
09:00 +9°C° 0 mm 2 mps 736 mmHg 65%
10:00 +10°C° 0 mm 2 mps 736 mmHg 57%
11:00 +12°C° 0.1 mm 2 mps 735 mmHg 56%
12:00 +12°C° 0.1 mm 2 mps 735 mmHg 54%
13:00 +11°C° 0.1 mm 3 mps 735 mmHg 53%
14:00 +11°C° 0.2 mm 3 mps 734 mmHg 55%
15:00 +11°C° 0.2 mm 3 mps 734 mmHg 56%
16:00 +11°C° 0.2 mm 4 mps 734 mmHg 58%
17:00 +10°C° 0.1 mm 3 mps 734 mmHg 65%
18:00 +8°C° 0.1 mm 2 mps 734 mmHg 72%
19:00 +7°C° 0.1 mm 2 mps 734 mmHg 79%
20:00 +7°C° 0 mm 2 mps 734 mmHg 82%
21:00 +6°C° 0 mm 2 mps 734 mmHg 85%
22:00 +6°C° 0 mm 1 mps 734 mmHg 88%
23:00 +5°C° 0 mm 2 mps 733 mmHg 89%

21 April, Wednesday

Time Temperature Precipitation Wind Pressure Humidity
00:00 +5°C° 0 mm 2 mps 733 mmHg 91%
01:00 +5°C° 0 mm 2 mps 733 mmHg 92%
02:00 +4°C° 0.1 mm 2 mps 733 mmHg 93%
03:00 +3°C° 0.1 mm 3 mps 733 mmHg 94%
04:00 +3°C° 0.1 mm 3 mps 733 mmHg 95%
05:00 +4°C° 0 mm 3 mps 733 mmHg 91%
06:00 +5°C° 0 mm 3 mps 733 mmHg 87%
07:00 +5°C° 0 mm 4 mps 733 mmHg 83%
08:00 +7°C° 0 mm 4 mps 734 mmHg 73%
09:00 +8°C° 0 mm 4 mps 734 mmHg 63%
10:00 +11°C° 0 mm 4 mps 734 mmHg 53%
11:00 +11°C° 0.1 mm 4 mps 734 mmHg 53%
12:00 +11°C° 0.1 mm 4 mps 734 mmHg 53%
13:00 +11°C° 0.1 mm 4 mps 734 mmHg 53%
14:00 +12°C° 0 mm 4 mps 734 mmHg 53%
15:00 +12°C° 0 mm 3 mps 734 mmHg 53%
16:00 +12°C° 0 mm 3 mps 734 mmHg 53%
17:00 +12°C° 0 mm 2 mps 734 mmHg 57%
18:00 +11°C° 0 mm 1 mps 734 mmHg 61%
19:00 +8°C° 0 mm 0 mps 734 mmHg 65%
20:00 +9°C° 0 mm 1 mps 735 mmHg 65%
21:00 +9°C° 0 mm 1 mps 735 mmHg 65%
22:00 +9°C° 0 mm 1 mps 735 mmHg 64%
23:00 +8°C° 0 mm 2 mps 735 mmHg 66%
Show more

We Need Your Consent

Meteoprog and our Service Providers may store and access personal data such as cookies, device identifiers or other similar technologies on your device and process such data to personalise content and ads, as well as provide social media features and to analyse the traffic.

  • Store and/or access information on your device

    Cookies, device identifiers or other information can be stored or accessed on your device for the purposes indicated above.

  • Personalised ads and content, ad and content measurement, audience insights, and products development

    Ads and content can be personalised based on a profile. More data can be added to better personalise ads and content. Ad and content performance can be measured. Insights about the audience who saw the ads and content can be derived. Such data can be used to develop or improve user’s experience, systems and software.

By clicking ‘I Agree’ you will allow the use of indicated cookies, device identifiers, web beacons or other similar technologies. Your settings can be changed in the browser on your device.

For certain purposes, legitimate interests may be relied on, rather than consent. You can read more about this in our Privacy and Cookie Policy.